Погода Тас-Тумус

Погода Тас-Тумус : погода сейчас, прогноз погоды и архив. Всё, что Вы хотите узнать о погоде Тас-Тумус!

Поиск расширенной информации на нашем сайте:

Другие новости

Новости СМИ2

Главная страница сайта

Новости сайта

03.07.2017

Напоминаем, что на нашем специализированном сайте Метеоцентр.Азия вы можете получить высокодетализированные автоматические прогнозы погоды по пунктам России, СНГ и мира в авиационном формате (включающие направление и скорость ветра, видимость, явления погоды, количество и форму облачности, нижнюю и верхнюю границу облачности).


Погода Тас-Тумус - сегодня

Время (UTC), дата Ветер
(°,м/с) 
Видим.   Явления Облачность Т
(°С)
Тd
(°С)
f(%) Тe
(°С)
Pmin
(гПа)
dP
(гПа)
Po
(мм)
O2
(г/м3)
Тmin Tmax R s Состояние
почвы
06 18.07.17 320 (СЗ) 20000 м    8/3 600 м средняя, верхняя 
[Sc|Ac trans|Ci fib]
+22.2 +10.8 48 +25  1000.5  -0.4  743  275           
09 18.07.17 320 (СЗ) 6-10{12}  20000 м    6/0 средняя, верхняя 
[Ac trans|Ci fib]
+22.8 +12.3 52 +27  1000  -0.4  743  274           
12 18.07.17 320 (СЗ) 6-10{12}  20000 м    ясно 
+19.9 +10.1 53 +21  1001.2  1.1  744  277    +23.9       
15 18.07.17 320 (СЗ) 6-10{12}  20000 м    3/0 600 м верхняя 
[Ci fib]
+15.6 +7.8 60 +15  1002  0.6  744  282           
18 18.07.17 320 (СЗ) 6-10{12}  20000 м    ясно 
+13.2 +7.2 67 +12  1001.9  -0.1  744  285           
21 18.07.17 320 (СЗ) 6-10{12}  20000 м    ясно 
+12.8 +7.7 71 +12  1002.4  0.5  744  285           
00 19.07.17 320 (СЗ) 6-10{12}  20000 м    ясно 
+16.5 +8.7 60 +16  1002.2  -0.2  744  281  +12.6        сухая 
03 19.07.17 320 (СЗ) 6-10{12}  20000 м    ясно 
+19.4 +10.6 57 +22  1001.6  -0.4  744  278           
06 19.07.17 320 (СЗ) 6-10{12}  20000 м    ясно 
+20.9 +9.8 49 +22  1001.3  -0.3  744  277           
09 19.07.17 320 (СЗ) 6-10{12}  20000 м    ясно 
+21 +9 46 +21  1001.2  -0.1  744  277           
12 19.07.17 320 (СЗ) 6-10{12}  20000 м    ясно 
+18.4 +10.4 60 +20  1001.3  744  279    +22.7       
15 19.07.17 320 (СЗ) 4{10}  20000 м    ясно 
+14.4 +10.8 79 +16  1001.9  0.5  744  283           
18 19.07.17 320 (СЗ) 20000 м    10/0 
+11.8 +11 95 +14  1001.7  -0.3  744  285           
21 19.07.17 320 (СЗ) 20000 м    ясно 
+8.9 +8.3 96 +8  1002.1  0.3  744  289           
00 20.07.17 330 (СЗ) 6-10{12}  20000 м    ясно 
+10 +4.6 69 +8  1002.9  0.8  745  289  +8.8        сухая 
03 20.07.17 330 (СЗ) 6-10{12}  20000 м    ясно 
+13.3 +5.9 61 +12  1003.9  1.1  745  285           
06 20.07.17 330 (СЗ) 6-10{12}  20000 м    ясно 
+15.4 +7.1 58 +15  1003.9  0.1  748  284           
09 20.07.17 330 (СЗ) 6-10{12}  20000 м    ясно 
+14.5 +7.7 64 +14  1004.8  0.8  746  284           
12 20.07.17 330 (СЗ) 7-10{12}  20000 м    4/4 600 м верхняя 
[Cu med, cong|Ci fib]
+12.7 +7.3 70 +11  1005.4  0.5  746  286    +15.8       
15 20.07.17 330 (СЗ) 6-10{12}  20000 м    ясно 
+10.7 +6.5 75 +9  1005.7  0.3  747  288           
18 20.07.17 330 (СЗ) 4{12}  20000 м    4/0 средняя 
[Ac trans]
+8.5 +6.4 87 +7  1005.7  -0.1  747  291           
21 20.07.17 320 (СЗ) 20000 м    3/0 средняя 
[Ac trans]
+7.4 +6.1 91 +7  1005.3  0.6  747  292           
00 21.07.17 320 (СЗ) 20000 м    ясно 
+12.7 +7.4 70 +13  1007.1  0.9  748  287  +7        сухая 
03 21.07.17 320 (СЗ) 20000 м    8/3 600 м средняя 
[Sc|Ac trans]
+14.6 +7.5 62 +15  1008.5  1.5  749  285           
06 21.07.17 310 (СЗ) 20000 м    9/6 600 м средняя 
[Sc|Ac trans]
+14.4 +7.1 61 +16  1009.2  0.7  749  286           
Время (UTC), дата Ветер
(°,м/с) 
Видим.   Явления Облачность Т
(°С)
Тd
(°С)
f(%) Тe
(°С)
Pmin
(гПа)
dP
(гПа)
Po
(мм)
O2
(г/м3)
Тmin Tmax R s Состояние
почвы

Для получения пояснительной информации подведите курсор к названию столбца.

ПОГОДА Тас-Тумус - архив

Всё, что Вы хотите узнать о погоде Тас-Тумус - удобно и подробно!

Выберите нужную дату (начиная с 1 января 2015* года) и нажмите кнопку "Найти".
Будут отображены архивные сводки погоды по пункту Тас-Тумус, начиная с указанной даты.


Отображать данные в формате CSV (для использования в таблицах Excel)


Внимание! Наш архив погоды предназначен исключительно для личного некоммерческого использования в познавательных целях. Если Вам необходимы официальные справки о состоянии погоды (для производственных, юридических, коммерческих и т.п. целей), обращайтесь в органы Росгидромета.

*Примечание: данная дата относится к архиву по метеостанциям СССР (Россия, СНГ, Балтия).
Архив по метеостанциям Зарубежной Европы и Азии (кроме Китая) хранится 10 дней, по другим регионам земного шара (Китай, Африка, Америка, Австралия, Океания) - 1 день.

Тас-Тумус - район местоположения метеостанции


Название, широта, долгота, высота метеостанции:
Тас-Тумус 64.2°ш. 126.6°д. 76 м над ур. моря [Российская Федерация]

Дополнительная информация

В oтличие oт бoльшинства пoгoдных сайтoв мы публикуем пoдрoбную метеoинфoрмацию в детальнoм прoфессиoнальнoм фoрмате.

Характеристики температуры и влажнoсти вoздуха измеряются на высoте 2 м в тени вдали oт зданий и деревьев.
Скoрoсть ветра измеряется на высoте 10 м (на урoвне рoста челoвека скoрoсть ветра ниже в 1.5-2 раза). Если метеoстанция нахoдится в гoрoде или в лесу, тo скoрoсть ветра занижена на 2-4 м/с пo сравнению с oткрытым местoм. Скoрoсть ветра над акватoриями крупных рек и oзёр, а также на вершинах хoлмoв на 2-5 м/с выше, чем в oбычных услoвиях.
Атмoсфернoе давление в разных тoчках местнoсти мoжет значительнo oтличаться oт давления на метеoстанции, в зависимoсти oт услoвий рельефа (при пoдъёме на 10 м давление пoнижается примернo на 1 мм рт.ст.).